Temp
58 58 58 57 57 57 57 57 57 56 56 56 56 56 57 57 58 57 57 57 57 57 58 59 59 60 64 68 69 80 71 73 74 75 74 72 69 67 65 66 66 64 66 68 69 66 67
58 57 57 57 57 57 57 56 56 56 56 56 56 56 56 57 57 57 57 57 56 57 57 59 60 60 68 61 80 77 75 76 77 76 74 74 72 72 68 66 65 66 65 67 66 66 65
58 57 57 57 56 56 56 56 56 56 56 56 56 56 56 56 56 56 56 56 56 56 58 59 60 64 68 68 77 77 76 75 75 76 73 75 76 72 69 64 67 65 62 64 65 65 65
58 57 56 56 56 56 55 55 56 56 56 56 56 56 55 55 55 55 55 55 56 57 59 60 61 65 65 77 79 78 75 73 76 75 75 77 76 72 68 68 64 61 60 57 62 64 65
57 56 56 56 55 55 55 55 55 55 55 55 55 55 55 55 55 55 55 55 56 58 60 60 66 69 64 77 73 74 72 68 71 75 75 76 73 65 65 60 58 58 53 53 57 61 61
57 56 56 55 55 55 55 55 55 55 55 55 55 55 55 55 55 54 54 55 60 62 65 68 70 65 69 66 70 71 73 69 70 72 71 69 65 62 60 60 50 50 51 53 52 60 58
57 56 55 55 55 55 55 55 55 54 54 55 55 55 55 55 55 54 56 67 65 63 65 62 63 64 66 71 72 68 70 67 70 66 61 62 59 52 54 57 57 55 52 50 55 59 54
56 55 54 54 54 54 54 54 54 54 54 54 54 54 54 54 54 54 57 58 58 60 57 63 65 65 67 67 60 64 68 64 61 56 59 58 50 56 58 57 56 53 50 50 55 56 55
55 53 53 53 54 54 54 54 54 54 54 54 54 54 54 54 54 55 55 54 57 59 56 60 63 63 64 66 58 58 61 59 58 54 54 51 52 57 56 53 52 52 49 49 48 53 54
54 52 52 53 53 53 53 53 53 53 54 53 54 54 53 53 56 54 54 56 56 58 47 50 59 64 65 63 56 66 63 58 56 51 53 51 55 53 53 50 50 46 52 50 49 48 45
53 52 52 52 52 52 52 52 53 53 53 53 53 53 53 54 54 53 56 56 57 58 33 54 58 69 63 56 55 58 62 60 50 50 54 46 49 49 49 48 50 48 52 49 49 47 46
52 52 52 52 51 51 52 52 52 52 53 53 53 53 53 54 54 55 55 56 57 44 30 49 56 53 53 53 53 56 56 59 55 51 51 48 55 52 49 51 52 52 50 47 47 46 37
52 51 51 51 51 51 52 52 52 52 52 53 53 53 55 54 53 54 54 55 41 32 49 45 47 50 48 46 48 49 45 44 41 42 38 44 47 51 51 47 52 49 45 37 36 35 33
51 51 51 51 51 51 51 52 52 52 52 52 52 52 53 53 53 54 54 48 32 41 43 50 48 49 43 46 45 46 43 40 45 41 37 35 39 45 51 47 43 43 43 34 26 31 35
51 51 50 50 50 51 51 51 52 52 52 52 52 52 52 52 53 52 51 32 36 41 47 45 47 42 42 45 45 43 41 39 42 42 36 32 36 46 48 50 50 43 39 43 34 35 34
51 50 50 50 50 50 51 51 52 52 52 52 52 51 52 51 51 50 42 36 42 48 49 48 40 41 38 41 41 40 39 43 40 44 45 37 31 43 46 51 51 46 48 35 36 26 25
51 50 50 50 50 50 51 51 52 52 52 52 50 50 54 51 52 47 34 41 45 49 50 45 41 40 40 39 41 38 37 43 43 44 46 42 36 41 45 42 39 42 37 37 36 32 27
50 49 49 49 50 50 51 51 52 52 52 50 48 46 53 52 44 39 39 45 47 46 49 46 45 43 41 40 39 38 37 40 45 44 39 42 38 33 38 45 49 46 40 34 30 29 31
49 49 49 49 50 50 50 51 51 51 52 49 47 48 53 52 36 37 43 43 44 45 42 44 41 43 43 39 36 39 40 46 45 44 40 43 36 31 36 41 44 39 40 39 34 32 31
49 49 49 49 50 50 51 51 51 51 52 49 46 41 47 44 42 41 41 41 41 45 43 43 42 43 42 39 40 37 39 44 44 45 46 45 38 32 31 34 38 32 34 38 37 32 33
49 48 49 49 49 50 51 51 51 51 52 49 42 38 43 41 40 40 42 42 39 39 45 44 41 39 39 36 37 36 38 41 44 44 44 42 33 35 36 37 37 34 34 35 34 34 32
49 48 48 49 49 50 51 51 51 52 52 46 43 42 41 40 42 41 39 40 38 38 40 39 39 38 40 37 38 36 39 40 37 43 40 41 34 37 35 37 37 33 35 35 36 37 38
48 48 48 49 49 50 51 51 51 52 52 46 42 45 45 37 39 41 39 41 40 40 41 42 41 40 39 39 43 43 43 41 41 40 38 38 36 34 32 37 35 33 33 35 36 38 38
48 48 49 49 50 50 51 51 51 52 52 48 44 45 41 36 39 38 41 41 40 40 39 41 42 41 42 45 44 44 43 42 42 41 41 37 36 35 33 36 27 35 39 39 38 38 40
48 48 49 49 49 50 51 51 51 52 51 46 42 45 41 36 39 41 41 40 41 41 40 40 42 44 43 43 41 38 38 39 39 40 40 39 37 32 30 32 34 35 36 36 35 37 42
48 48 49 49 49 50 51 51 51 51 50 44 40 42 44 40 37 39 40 40 38 38 39 40 44 43 44 41 38 30 26 32 31 36 41 39 39 34 30 27 26 32 37 42 43 34 44
48 48 49 49 50 50 51 51 51 51 50 46 42 42 44 36 39 41 40 39 39 38 37 37 38 40 42 38 34 29 29 34 27 28 30 32 32 29 29 29 31 37 40 45 34 33 44
48 48 49 49 50 50 51 51 51 51 51 48 43 43 46 38 40 42 42 40 40 38 37 37 37 39 38 32 33 30 30 31 31 33 30 28 27 27 30 28 25 44 42 36 38 44 46
48 48 48 49 50 50 50 51 51 52 52 53 46 48 49 45 43 45 45 45 43 44 39 36 37 35 36 32 33 34 33 33 30 27 37 29 32 29 31 32 42 44 41 45 48 45 46
MSLP
1019.31 1019.37 1019.34 1019.51 1019.44 1019.04 1018.85 1018.68 1018.40 1018.43 1018.13 1017.77 1017.50 1017.11 1016.61 1016.09 1015.46 1014.92 1014.68 1014.39 1014.03 1013.50 1012.96 1012.78 1012.58 1012.40 1012.18 1011.65 1010.97 1010.03 1009.84 1009.65 1009.74 1009.61 1009.53 1009.43 1009.52 1009.71 1009.78 1009.87 1009.96 1009.86 1009.48 1009.54 1009.39 1009.44 1009.53
1019.23 1019.25 1019.22 1019.40 1019.31 1018.98 1018.71 1018.57 1018.39 1018.23 1017.97 1017.55 1017.31 1016.91 1016.41 1015.98 1015.34 1014.75 1014.25 1013.91 1013.54 1013.26 1012.67 1012.41 1012.59 1012.43 1011.96 1011.31 1010.24 1010.06 1009.76 1009.36 1009.33 1009.34 1009.18 1009.23 1009.20 1009.38 1009.61 1009.75 1009.85 1009.72 1009.78 1009.64 1009.65 1009.61 1009.75
1019.09 1019.13 1019.13 1019.21 1019.18 1018.89 1018.60 1018.47 1018.26 1018.05 1017.80 1017.32 1017.06 1016.62 1016.26 1015.71 1015.11 1014.52 1013.98 1013.35 1013.09 1012.63 1012.22 1012.12 1012.20 1012.16 1011.51 1010.86 1010.21 1009.96 1009.62 1009.28 1009.11 1009.05 1009.01 1008.96 1008.98 1009.30 1009.64 1009.85 1009.96 1009.92 1009.87 1009.84 1009.87 1009.92 1010.01
1019.10 1019.13 1019.02 1019.10 1019.07 1018.81 1018.44 1018.33 1018.09 1017.81 1017.62 1017.17 1016.80 1016.33 1015.95 1015.53 1014.69 1014.33 1013.66 1013.08 1012.68 1012.33 1011.95 1011.77 1012.02 1011.93 1011.17 1010.14 1009.86 1009.49 1009.35 1009.25 1009.10 1008.96 1009.04 1008.89 1009.00 1009.36 1009.80 1010.14 1010.27 1010.28 1010.39 1010.22 1010.51 1010.37 1010.39
1018.89 1019.04 1018.88 1018.94 1018.93 1018.69 1018.32 1018.00 1018.03 1017.75 1017.41 1016.99 1016.64 1016.07 1015.72 1014.95 1014.46 1014.04 1013.20 1012.69 1012.27 1011.97 1011.84 1011.86 1012.04 1011.70 1011.32 1010.14 1010.19 1010.28 1010.19 1009.89 1009.35 1009.09 1009.17 1009.22 1009.41 1010.16 1010.43 1010.52 1010.80 1010.96 1010.80 1010.98 1010.84 1011.28 1011.16
1018.72 1018.90 1018.71 1018.71 1018.91 1018.63 1018.22 1017.90 1017.71 1017.74 1017.24 1016.86 1016.49 1015.88 1015.44 1014.41 1014.33 1013.52 1012.65 1012.58 1011.88 1011.93 1011.89 1011.72 1011.82 1012.06 1011.59 1011.57 1011.32 1011.11 1010.38 1010.13 1009.68 1009.45 1009.53 1009.89 1010.53 1011.05 1011.22 1010.99 1011.33 1011.56 1011.59 1011.61 1011.54 1011.67 1011.98
1018.37 1018.68 1018.63 1018.66 1018.80 1018.37 1018.04 1017.87 1017.35 1017.67 1017.12 1016.80 1016.30 1015.68 1015.02 1014.42 1014.12 1013.30 1012.47 1011.99 1012.59 1012.62 1012.74 1013.23 1013.47 1013.23 1012.56 1012.09 1011.67 1011.53 1011.04 1010.47 1010.12 1010.28 1010.76 1011.29 1011.48 1012.32 1012.50 1012.25 1012.22 1012.31 1012.34 1012.35 1012.17 1012.31 1012.71
1018.43 1018.60 1018.55 1018.61 1018.48 1018.27 1017.99 1017.65 1017.30 1017.57 1017.22 1016.48 1016.00 1015.37 1014.96 1014.16 1013.91 1013.49 1013.10 1013.62 1014.20 1014.38 1014.29 1013.92 1013.42 1013.20 1012.89 1012.91 1012.59 1012.14 1011.81 1011.43 1011.54 1011.68 1011.94 1012.47 1013.06 1013.63 1013.37 1013.05 1012.90 1013.00 1013.03 1013.05 1012.76 1012.90 1013.05
1018.14 1018.18 1018.38 1018.43 1018.12 1017.96 1017.83 1017.69 1017.50 1017.39 1016.85 1016.07 1015.90 1015.17 1014.72 1014.22 1013.80 1013.66 1013.86 1014.67 1014.62 1014.66 1014.53 1014.24 1013.97 1013.59 1013.64 1013.61 1014.32 1014.11 1013.71 1013.33 1013.18 1013.17 1013.33 1013.65 1014.86 1014.32 1014.00 1013.93 1013.76 1013.72 1013.75 1013.71 1013.73 1013.44 1013.57
1017.77 1018.14 1018.26 1018.00 1017.96 1017.83 1017.84 1017.80 1017.45 1017.01 1016.48 1015.98 1015.63 1015.05 1014.64 1014.15 1014.11 1014.39 1014.56 1014.91 1014.76 1014.81 1015.10 1015.72 1014.46 1014.33 1014.04 1013.90 1014.77 1015.02 1014.71 1014.68 1014.26 1014.80 1014.76 1015.34 1015.73 1015.04 1014.79 1014.77 1014.98 1014.46 1014.48 1014.34 1014.00 1013.92 1013.85
1017.59 1018.00 1017.91 1017.93 1017.88 1017.79 1017.77 1017.56 1017.40 1016.57 1016.24 1015.86 1015.39 1015.07 1014.66 1014.44 1014.29 1014.71 1014.95 1014.67 1014.83 1014.95 1016.12 1016.75 1015.58 1015.06 1015.48 1015.46 1016.81 1015.71 1015.68 1015.07 1015.87 1015.99 1015.66 1016.98 1016.50 1016.06 1015.83 1016.06 1015.80 1015.31 1014.88 1014.64 1014.35 1014.35 1014.64
1017.47 1017.78 1017.78 1017.94 1017.70 1017.77 1017.45 1017.35 1017.12 1016.43 1016.04 1015.76 1015.03 1014.99 1014.79 1014.57 1014.62 1015.01 1014.67 1014.69 1015.08 1015.94 1017.38 1017.32 1016.74 1016.65 1016.62 1017.31 1017.56 1017.46 1016.92 1016.42 1017.29 1017.05 1017.21 1017.82 1017.39 1017.36 1017.26 1016.52 1016.28 1015.93 1015.00 1014.97 1014.99 1015.05 1015.45
1017.34 1017.52 1017.73 1017.45 1017.73 1017.43 1017.43 1016.95 1016.81 1016.14 1015.88 1015.58 1015.20 1014.76 1014.59 1014.83 1015.33 1015.00 1014.79 1015.21 1016.52 1017.53 1018.92 1018.84 1018.40 1018.15 1018.49 1018.89 1019.01 1019.21 1019.26 1018.92 1019.82 1019.16 1019.33 1018.97 1018.51 1018.25 1017.91 1017.15 1016.65 1016.43 1015.80 1015.62 1015.72 1015.84 1016.61
1017.00 1017.37 1017.40 1017.39 1017.44 1017.44 1016.97 1016.62 1016.33 1016.00 1015.69 1015.28 1015.35 1014.92 1014.99 1015.46 1014.92 1014.84 1015.49 1016.20 1017.93 1019.64 1019.50 1019.39 1019.34 1019.39 1019.81 1020.17 1020.58 1020.73 1020.71 1021.15 1021.46 1021.54 1021.39 1020.80 1019.44 1019.35 1018.88 1018.61 1018.16 1017.58 1017.36 1017.46 1017.36 1017.32 1017.64
1016.83 1016.99 1017.14 1017.15 1017.41 1016.94 1016.65 1016.29 1016.21 1015.90 1015.63 1015.14 1015.04 1015.09 1015.56 1015.21 1014.75 1015.16 1016.26 1018.46 1020.23 1020.38 1020.11 1019.79 1020.13 1020.49 1020.83 1020.94 1021.16 1021.80 1022.49 1023.03 1023.12 1022.82 1022.67 1022.31 1021.31 1020.42 1019.77 1019.34 1018.70 1018.40 1018.51 1019.08 1018.93 1019.13 1018.89
1016.32 1016.69 1016.99 1016.99 1017.06 1016.68 1016.22 1016.22 1015.94 1015.70 1015.52 1014.77 1015.05 1015.38 1015.98 1015.51 1015.25 1015.68 1017.41 1020.46 1021.12 1020.80 1020.37 1020.35 1021.02 1021.54 1021.79 1021.90 1021.99 1022.53 1023.57 1024.16 1023.92 1023.67 1023.43 1023.52 1022.62 1021.31 1020.40 1019.77 1019.60 1019.56 1019.94 1019.90 1020.12 1020.28 1019.97
1016.22 1016.55 1016.74 1016.84 1016.89 1016.30 1016.00 1015.94 1015.76 1015.65 1015.25 1014.70 1015.16 1015.75 1015.95 1015.59 1015.65 1016.88 1019.86 1021.09 1021.26 1021.10 1020.92 1021.13 1021.66 1022.13 1022.67 1022.77 1022.94 1023.61 1024.58 1024.58 1024.43 1023.96 1023.74 1023.70 1023.47 1022.04 1021.17 1021.18 1020.97 1020.56 1020.87 1021.31 1021.58 1021.63 1021.07
1016.02 1016.38 1016.40 1016.75 1016.39 1016.21 1015.78 1015.76 1015.66 1015.51 1014.88 1014.67 1015.64 1016.47 1015.98 1016.03 1017.46 1019.92 1020.95 1021.23 1021.17 1021.75 1021.54 1021.85 1022.26 1022.74 1023.14 1023.37 1023.80 1024.21 1024.78 1024.80 1024.69 1024.39 1024.25 1024.16 1023.84 1022.98 1022.48 1022.26 1021.82 1021.77 1022.39 1022.83 1022.74 1022.42 1021.93
1015.66 1015.93 1016.41 1016.56 1015.92 1015.80 1015.74 1015.68 1015.41 1014.73 1014.88 1014.88 1016.35 1016.97 1016.31 1016.40 1019.06 1021.01 1021.62 1021.88 1022.23 1022.32 1022.74 1022.71 1023.31 1023.50 1023.66 1024.10 1024.60 1024.86 1025.08 1025.03 1024.93 1024.66 1024.74 1024.36 1024.18 1023.65 1022.88 1022.84 1022.67 1022.98 1023.23 1023.36 1023.35 1023.04 1022.37
1015.51 1015.84 1016.19 1016.06 1015.64 1015.70 1015.51 1015.24 1014.83 1014.64 1014.71 1015.16 1016.66 1017.82 1018.18 1018.69 1020.12 1020.79 1021.73 1022.53 1022.91 1023.14 1023.53 1023.74 1024.20 1024.14 1024.25 1024.75 1024.94 1025.32 1025.43 1025.31 1025.20 1024.99 1024.85 1024.73 1024.87 1024.71 1024.36 1024.32 1024.63 1024.34 1023.94 1023.45 1022.95 1023.11 1022.59
1015.31 1015.73 1015.92 1015.72 1015.41 1015.28 1015.01 1015.01 1014.67 1014.39 1014.77 1015.20 1017.42 1019.83 1020.25 1021.30 1021.76 1021.76 1021.88 1022.88 1023.42 1023.82 1024.06 1024.33 1024.84 1025.09 1024.99 1025.28 1025.59 1025.81 1025.86 1025.64 1025.47 1025.44 1025.23 1025.36 1025.42 1025.27 1025.04 1025.00 1025.11 1025.15 1024.75 1024.08 1023.64 1023.48 1023.22
1015.23 1015.48 1015.66 1015.35 1015.22 1014.79 1014.76 1014.65 1014.27 1014.40 1014.75 1015.37 1017.70 1018.86 1020.71 1021.83 1022.44 1022.27 1022.58 1023.79 1024.16 1024.73 1024.88 1025.08 1025.33 1025.69 1025.47 1025.82 1026.18 1026.14 1026.09 1026.10 1026.32 1026.01 1025.92 1026.15 1025.93 1025.53 1025.14 1025.01 1025.06 1025.46 1025.27 1024.82 1024.38 1024.20 1024.14
1015.03 1015.25 1015.36 1014.98 1014.67 1014.49 1014.38 1014.34 1014.08 1014.23 1014.49 1015.85 1017.91 1018.28 1018.97 1022.85 1023.09 1022.84 1023.80 1024.09 1024.57 1024.77 1025.77 1025.73 1025.90 1026.03 1026.34 1026.63 1026.49 1026.45 1026.52 1026.65 1026.64 1026.68 1026.59 1026.54 1026.25 1025.70 1025.21 1025.11 1025.21 1025.61 1026.45 1026.21 1025.85 1025.67 1025.27
1014.87 1015.07 1015.01 1014.63 1014.31 1014.13 1014.20 1013.98 1013.79 1014.17 1014.19 1014.98 1016.94 1017.72 1019.90 1023.72 1023.69 1024.14 1024.30 1024.43 1024.96 1025.05 1025.45 1026.33 1026.36 1026.46 1027.08 1026.82 1026.80 1026.81 1026.87 1026.95 1026.99 1027.12 1027.22 1027.05 1026.60 1026.31 1025.41 1025.05 1025.65 1026.48 1026.83 1026.60 1026.32 1026.37 1026.12
1014.67 1015.00 1014.67 1014.30 1014.00 1014.12 1013.85 1013.53 1013.44 1014.02 1014.21 1015.01 1016.95 1017.69 1020.26 1023.89 1024.97 1025.41 1025.30 1025.48 1025.71 1025.79 1026.24 1026.66 1026.87 1027.06 1027.06 1026.99 1026.87 1027.02 1027.16 1027.19 1027.49 1027.68 1027.63 1027.56 1027.09 1026.71 1026.17 1025.64 1026.39 1026.73 1027.37 1027.28 1026.99 1026.59 1026.60
1014.67 1014.64 1014.51 1014.10 1013.90 1014.04 1013.64 1013.39 1013.58 1014.13 1014.24 1015.21 1017.54 1017.99 1019.44 1022.51 1026.42 1026.24 1026.10 1026.39 1026.45 1026.63 1027.09 1027.28 1027.26 1027.23 1027.03 1027.18 1027.22 1027.85 1028.37 1028.41 1028.28 1028.07 1028.07 1027.88 1027.63 1027.33 1027.00 1026.53 1027.03 1028.11 1027.76 1027.31 1026.82 1026.79 1026.72
1014.45 1014.59 1014.43 1013.95 1013.94 1013.97 1013.61 1013.74 1014.01 1014.20 1014.30 1014.91 1018.18 1018.43 1019.48 1023.29 1026.81 1026.72 1026.59 1026.89 1027.11 1027.43 1027.77 1028.09 1028.00 1027.59 1027.42 1027.81 1028.52 1029.25 1029.49 1029.68 1029.64 1029.52 1029.23 1028.79 1028.50 1028.31 1027.89 1027.65 1028.13 1028.48 1027.67 1026.82 1027.15 1028.41 1027.14
1014.46 1014.52 1014.31 1013.92 1014.18 1013.90 1013.84 1014.07 1014.24 1014.43 1014.56 1014.95 1019.03 1018.87 1019.23 1024.18 1027.13 1027.20 1027.13 1027.35 1027.64 1027.96 1028.28 1028.78 1028.86 1028.27 1028.47 1029.19 1029.89 1030.62 1030.63 1030.99 1030.87 1030.85 1030.68 1030.46 1030.06 1029.67 1029.17 1028.63 1028.97 1028.58 1027.87 1028.02 1028.73 1028.06 1027.43
1014.54 1014.39 1014.28 1014.30 1014.08 1014.05 1014.24 1014.39 1014.57 1014.67 1014.98 1015.09 1018.67 1019.56 1019.63 1022.09 1027.33 1027.75 1027.83 1027.95 1028.21 1028.08 1028.36 1029.03 1029.27 1029.54 1029.96 1030.49 1031.11 1031.34 1031.49 1031.68 1031.70 1031.38 1031.32 1031.27 1031.36 1030.97 1030.57 1029.78 1029.35 1029.29 1029.04 1028.75 1028.37 1027.87 1027.38
Wind_Speed
2 4 5 8 9 10 12 13 14 16 16 17 17 18 18 18 17 17 17 17 17 15 12 10 7 6 2 4 1 4 11 4 3 3 3 4 3 3 2 2 3 4 2 3 6 6 3
3 3 5 7 9 10 12 14 15 15 16 16 17 18 18 18 17 18 17 17 17 15 12 8 7 3 1 4 3 6 8 5 2 3 4 4 4 4 2 2 2 3 1 1 8 8 4
3 4 5 7 9 10 12 13 14 16 16 16 17 18 19 18 18 18 19 17 17 13 11 7 4 2 4 2 4 8 7 8 2 2 3 3 4 3 2 1 2 1 3 2 12 11 6
5 5 5 7 9 10 11 13 14 15 16 16 17 18 18 18 17 19 19 18 17 13 7 1 4 1 1 2 5 18 9 5 3 1 1 1 3 3 1 1 4 3 3 2 5 12 5
6 5 5 6 9 11 12 13 15 15 16 16 17 17 17 17 17 19 19 18 15 8 4 5 1 2 4 9 8 9 6 6 8 3 3 4 4 3 3 3 2 6 3 3 5 5 3
7 6 5 6 9 11 12 12 14 16 16 17 17 18 18 17 18 18 19 10 4 3 1 2 3 4 7 7 5 12 9 7 4 2 4 6 6 5 4 3 2 2 1 1 4 6 8
6 6 5 7 9 11 12 13 13 16 16 17 17 17 18 17 19 17 10 2 5 7 10 6 1 2 5 9 2 21 12 8 3 7 5 6 10 6 5 4 5 4 2 3 4 3 3
7 6 5 7 9 10 12 13 14 16 16 16 17 17 18 18 18 14 2 5 3 3 6 4 2 3 3 2 9 25 17 7 9 5 1 6 8 7 5 6 4 5 3 4 7 3 1
6 4 5 8 8 11 12 14 14 15 16 16 16 17 18 17 16 3 4 4 2 0 6 4 3 5 5 5 6 19 14 4 7 14 13 9 7 6 3 12 9 1 4 6 7 8 4
5 4 5 6 9 10 12 13 14 15 16 16 16 15 15 18 2 1 4 3 2 1 6 12 8 9 17 1 6 14 8 2 6 4 3 8 10 6 8 6 8 3 7 9 10 2 1
5 5 5 6 8 9 11 13 14 14 15 16 15 15 14 8 5 3 1 3 2 2 5 9 7 3 8 11 7 23 7 6 9 10 2 2 9 14 8 6 7 4 15 5 4 2 3
6 5 5 7 8 10 11 12 14 14 15 15 14 14 11 2 3 1 3 3 3 8 1 5 5 7 6 10 7 10 14 7 3 5 10 5 3 4 6 11 4 14 5 1 2 1 2
6 5 6 6 9 10 11 12 14 14 14 15 13 12 3 1 2 3 2 4 7 7 3 6 4 6 4 8 10 11 10 20 11 6 10 6 8 5 5 5 5 14 6 2 1 2 2
7 6 5 6 9 10 10 12 14 14 14 13 12 4 4 2 2 2 3 7 9 3 1 1 4 2 5 8 6 15 5 8 13 6 4 7 3 11 12 6 8 6 5 3 2 2 3
8 5 5 7 9 9 11 13 13 14 13 12 9 2 3 5 5 3 6 9 4 3 1 2 2 4 6 5 4 6 9 9 7 9 5 7 1 6 2 4 9 6 5 5 3 2 2
8 6 6 7 9 9 10 12 12 13 13 9 2 3 3 8 3 5 9 5 1 1 2 3 3 2 4 8 4 5 8 5 8 6 1 2 4 1 6 4 8 8 6 1 4 4 3
8 5 6 7 9 9 10 11 12 11 9 1 4 4 3 5 2 9 6 4 3 4 1 4 3 4 3 2 4 4 5 2 7 7 4 2 0 5 1 7 5 5 6 5 1 1 3
8 6 5 8 9 10 10 10 10 8 7 5 3 4 4 3 7 3 3 4 3 4 8 5 5 4 2 4 5 3 3 1 8 4 4 3 1 3 2 6 4 7 6 3 2 3 2
8 5 6 8 8 10 10 10 8 6 2 4 4 1 2 2 6 3 3 5 5 3 6 3 4 4 3 3 4 2 2 1 6 6 4 4 4 2 2 0 4 5 7 6 4 1 2
8 5 7 7 6 9 10 10 8 4 4 4 4 4 5 7 3 6 6 4 5 4 4 6 4 3 3 4 7 3 1 2 4 7 9 1 4 3 2 1 4 6 13 10 2 0 4
8 5 6 6 7 8 8 9 6 3 8 4 4 2 0 3 5 5 4 3 3 4 3 6 4 5 2 3 2 2 1 1 4 9 5 4 4 2 3 4 1 3 10 12 7 4 2
8 5 6 4 7 7 9 8 5 5 10 6 5 6 4 4 1 4 6 3 3 3 4 3 6 5 4 4 1 3 1 2 2 5 4 5 2 2 1 4 6 7 13 11 9 11 13
8 5 6 4 6 7 8 8 5 10 4 4 1 3 7 4 2 2 2 4 3 6 4 5 5 4 6 2 3 2 2 3 3 3 5 4 4 3 3 1 3 3 8 8 9 17 7
7 5 5 2 5 7 7 6 6 14 3 4 2 4 7 4 4 3 4 5 5 2 7 2 3 2 2 1 4 7 6 4 4 6 3 5 5 2 1 2 4 3 8 3 11 15 15
6 5 3 2 4 6 5 1 8 14 4 6 2 5 5 8 3 9 11 9 7 8 5 4 3 2 1 4 1 3 3 2 6 8 7 4 2 3 3 4 5 3 7 6 5 9 16
6 4 2 1 4 4 3 9 13 14 14 8 4 1 7 10 5 2 4 2 3 3 2 2 2 3 2 2 3 4 4 3 4 4 4 3 5 2 3 2 4 4 12 13 9 4 16
6 3 2 3 4 4 9 11 11 10 10 8 4 3 7 10 3 2 3 3 3 3 3 2 4 5 2 3 5 4 3 3 4 5 7 6 5 6 5 3 4 8 17 11 1 5 16
7 4 3 5 6 9 11 11 14 13 11 8 2 3 6 8 8 6 4 4 2 2 2 0 0 3 4 6 3 2 3 4 2 3 3 5 4 4 4 3 2 16 7 5 4 10 12
7 6 6 6 10 12 12 14 14 14 14 8 9 4 4 10 9 3 8 6 2 2 5 3 4 3 2 5 2 3 3 2 4 2 3 2 2 1 2 2 8 12 11 9 6 11 9
Wind_Direction
243 311 324 322 326 331 332 333 335 329 329 330 329 326 325 324 326 326 317 312 306 305 302 302 305 317 251 59 314 322 332 331 204 155 195 155 146 147 213 198 181 216 272 341 324 339 23
232 292 312 318 324 331 330 332 330 327 328 330 328 326 324 323 323 323 316 309 304 298 300 298 297 311 56 72 288 326 316 303 257 220 181 165 179 198 191 222 233 200 354 297 358 2 34
250 288 306 316 320 327 332 329 329 327 327 331 327 326 323 321 325 321 313 307 298 292 292 283 260 248 74 155 321 321 324 306 284 210 191 199 159 155 148 232 311 334 140 23 21 354 27
260 274 303 316 324 327 331 328 329 330 328 332 328 327 323 316 327 317 309 307 298 289 291 205 185 189 140 299 311 15 348 351 2 231 228 6 126 100 48 71 30 43 73 349 27 5 8
256 266 297 315 320 324 329 332 330 330 330 331 326 326 318 323 325 314 308 307 287 265 213 136 88 44 343 324 4 358 350 333 320 81 49 73 65 61 46 81 59 20 55 17 341 35 330
244 264 295 320 318 321 327 331 333 331 330 329 325 325 318 329 318 314 317 276 273 155 180 198 76 39 354 319 328 344 340 354 9 87 71 38 51 58 38 37 77 29 65 327 340 9 37
235 257 293 309 312 325 328 328 340 331 329 325 326 327 328 324 320 322 337 59 35 14 33 84 184 112 292 310 353 356 352 331 25 57 70 29 74 44 6 16 101 100 90 358 303 35 84
222 251 280 299 316 323 326 334 339 325 320 327 329 331 326 326 318 316 356 74 103 151 80 11 63 358 320 345 6 358 359 50 38 60 57 67 55 344 34 39 84 58 65 0 293 333 308
224 248 285 303 322 326 330 331 328 319 325 333 329 332 329 323 311 21 68 110 341 258 87 7 291 357 350 19 42 355 4 337 53 62 59 81 352 317 70 41 24 6 29 329 302 333 73
200 247 285 315 320 325 328 321 325 323 328 332 332 333 328 322 43 263 52 332 350 304 77 337 349 18 354 119 60 10 7 11 47 78 67 62 356 26 39 55 7 308 6 316 304 265 167
202 255 289 309 314 321 320 321 318 327 331 331 333 331 331 346 144 59 162 351 339 60 64 322 341 326 15 70 313 9 337 26 61 26 220 45 29 24 27 346 329 323 317 287 287 187 168
200 247 279 295 311 315 323 323 321 330 332 328 336 329 322 351 55 17 7 36 43 46 256 356 2 1 29 32 19 347 25 40 63 52 52 47 337 33 328 312 337 326 328 61 84 129 94
201 237 271 305 308 319 315 325 324 333 332 330 327 331 14 54 98 350 52 57 48 85 291 347 350 8 66 11 27 11 27 46 29 357 20 343 27 340 10 338 356 0 340 2 123 42 67
203 230 271 300 307 310 322 329 330 332 330 331 320 325 27 49 336 55 45 59 73 233 25 354 14 32 60 6 28 24 35 38 34 31 59 18 21 2 345 16 324 329 14 36 304 350 12
203 228 268 292 298 316 326 333 328 331 326 324 312 23 32 336 17 68 72 55 161 200 250 32 73 52 24 12 69 69 43 20 17 9 47 356 282 318 311 332 2 357 24 340 293 43 252
194 224 266 290 303 316 333 326 331 330 324 320 89 75 8 318 10 67 73 115 115 291 35 68 103 17 53 358 54 60 31 359 345 12 313 26 312 317 314 360 18 46 350 356 27 22 20
189 226 268 293 299 318 328 328 330 326 331 38 58 67 272 344 40 54 89 101 116 22 106 53 107 94 78 45 51 66 10 47 358 332 38 30 85 344 345 30 339 358 23 18 90 359 329
184 225 272 291 305 316 324 325 323 320 333 62 99 62 320 26 55 38 72 114 109 7 31 67 82 73 73 38 58 88 85 30 345 310 14 356 48 339 340 334 13 63 48 64 355 2 291
181 220 261 284 316 318 319 313 315 339 327 114 85 96 335 89 110 79 78 71 72 50 29 59 62 38 49 66 101 69 137 44 10 37 27 341 29 355 134 107 33 23 346 333 215 184 288
187 220 267 288 313 311 317 317 330 320 192 87 95 73 359 48 40 98 122 70 103 44 61 63 71 69 81 60 34 108 79 6 352 16 27 115 56 29 94 20 340 321 326 343 226 294 334
183 221 266 295 312 311 321 315 321 294 179 99 34 96 221 66 21 88 82 78 87 67 67 38 65 43 64 97 63 83 10 10 51 3 37 48 42 354 303 279 290 306 351 2 32 339 32
189 215 262 289 303 316 315 314 311 231 151 82 127 133 39 73 19 55 26 56 110 122 23 28 94 53 72 91 25 168 152 33 30 5 49 2 30 332 171 25 149 64 18 13 23 31 52
188 214 255 285 310 317 313 301 266 190 121 102 152 63 99 9 36 69 31 149 123 131 54 53 143 103 64 42 287 283 86 84 112 41 32 22 351 354 120 14 152 50 17 21 50 39 28
187 214 244 299 320 321 302 287 218 185 177 117 144 104 86 50 62 53 84 88 104 63 119 65 79 87 95 229 108 93 92 95 81 66 40 353 355 316 288 260 73 80 28 22 66 47 30
180 221 246 319 340 318 318 210 177 161 114 88 117 101 105 102 84 73 84 99 78 61 70 84 44 40 320 149 93 86 37 113 55 51 48 30 12 337 341 54 98 46 17 350 350 48 24
179 210 236 10 16 332 72 99 127 130 115 91 68 42 102 129 23 335 89 19 100 84 62 38 12 333 120 72 54 60 46 341 6 360 34 24 43 43 348 40 80 23 329 316 288 74 8
161 194 200 77 53 78 94 104 119 121 108 101 75 26 90 97 32 9 88 101 98 84 85 343 348 16 7 60 62 44 57 324 23 17 345 356 3 21 16 52 87 345 334 318 61 335 328
155 158 110 86 98 93 96 97 104 104 88 83 82 353 110 90 49 26 34 73 77 71 130 350 203 21 59 66 74 59 46 38 26 19 10 11 356 15 340 27 48 359 356 43 326 296 320
146 120 100 105 101 92 94 97 93 91 88 83 81 18 75 78 118 94 86 70 359 204 134 45 98 84 106 100 84 122 74 25 358 45 360 16 13 326 305 309 346 331 287 267 290 309 319